Emporia, KS

1:49 AM CDT on April 25, 2017 (GMT -0500)
Emporia Municipal

Weather History for KEMP - February, 2012

Change the Weather History Date:

Wednesday, February 1, 2012

  Actual Average Record
Temperature  
Mean Temperature 47 °F 32 °F  
Max Temperature 64 °F 43 °F 68 °F (2003)
Min Temperature 30 °F 22 °F 6 °F (2011)
Degree Days  
Heating Degree Days 18 33  
Month to date heating degree days 18 33  
Since 1 July heating degree days 2594 3021  
Cooling Degree Days 0 0  
Month to date cooling degree days 0 0  
Year to date cooling degree days 0 0  
Moisture  
Dew Point 27 °F    
Average Humidity 54    
Maximum Humidity 85    
Minimum Humidity 23    
Precipitation  
Precipitation 0.00 in 0.04 in 0.25 in (2004)
Month to date precipitation 0.00 0.04  
Year to date precipitation T 0.67  
Sea Level Pressure  
Sea Level Pressure 30.16 in    
Wind  
Wind Speed 4 mph (West)    
Max Wind Speed 10 mph    
Max Gust Speed 10 mph    
Visibility 10 miles    
Events      
T = Trace of Precipitation, MM = Missing Value Source: NWS Daily Summary

Daily Weather History Graph

Daily Weather History Graph

Search for Another Location

Airport or City:

Trip Planner

Search our weather history database for the weather conditions in past years. The results will help you decide how hot, cold, wet, or windy it might be!

Date:

Astronomy

Feb. 01, 2012 Rise Set
Actual Time 7:30 AM CST 5:46 PM CST
Civil Twilight 7:02 AM CST 6:14 PM CST
Nautical Twilight 6:30 AM CST 6:46 PM CST
Astronomical Twilight 5:59 AM CST 7:17 PM CST
Moon 12:16 PM CST (2/1) 2:16 AM CST (2/1)
Length of Visible Light 11h 12m
Length of Day
10h 16m
Waxing Gibbous, 65% of the Moon is Illuminated
Feb 1
Waxing Gibbous
Feb 7
Full
Feb 14
Last Quarter
Feb 21
New
Feb 29
First Quarter

Hourly Weather History & Observations

Time (CST) Temp. Windchill Dew Point Humidity Pressure Visibility Wind Dir Wind Speed Gust Speed Precip Events Conditions
12:53 AM 39.9 °F 35.8 °F 30.0 °F 68% 30.11 in 10.0 mi WNW 5.8 mph - N/A   Clear
1:53 AM 37.9 °F 34.4 °F 28.9 °F 70% 30.12 in 10.0 mi WNW 4.6 mph - N/A   Clear
2:53 AM 41.0 °F 38.0 °F 28.9 °F 62% 30.12 in 10.0 mi WNW 4.6 mph - N/A   Clear
3:53 AM 37.9 °F 35.5 °F 28.9 °F 70% 30.12 in 10.0 mi WNW 3.5 mph - N/A   Clear
4:53 AM 35.1 °F 32.2 °F 28.0 °F 76% 30.12 in 10.0 mi NW 3.5 mph - N/A   Clear
5:53 AM 32.0 °F 26.4 °F 27.0 °F 82% 30.14 in 10.0 mi NW 5.8 mph - N/A   Clear
6:53 AM 30.9 °F 26.2 °F 26.1 °F 82% 30.15 in 10.0 mi NW 4.6 mph - N/A   Clear
7:53 AM 32.0 °F 27.5 °F 27.0 °F 82% 30.17 in 10.0 mi NW 4.6 mph - N/A   Clear
8:53 AM 36.0 °F - 30.0 °F 79% 30.18 in 10.0 mi Calm Calm - N/A   Clear
9:53 AM 43.0 °F 41.3 °F 30.9 °F 62% 30.19 in 10.0 mi NW 3.5 mph - N/A   Clear
10:53 AM 53.1 °F - 32.0 °F 45% 30.20 in 10.0 mi Calm Calm - N/A   Clear
11:53 AM 55.9 °F - 32.0 °F 40% 30.19 in 10.0 mi SE 3.5 mph - N/A   Clear
12:53 PM 61.0 °F - 30.9 °F 32% 30.16 in 10.0 mi Calm Calm - N/A   Clear
1:53 PM 61.0 °F - 24.1 °F 24% 30.14 in 10.0 mi Calm Calm - N/A   Clear
2:53 PM 62.1 °F - 24.1 °F 23% 30.13 in 8.0 mi Calm Calm - N/A   Clear
3:53 PM 62.1 °F - 24.1 °F 23% 30.13 in 10.0 mi Calm Calm - N/A   Scattered Clouds
4:53 PM 61.0 °F - 24.1 °F 24% 30.13 in 10.0 mi Calm Calm - N/A   Clear
5:53 PM 57.0 °F - 23.0 °F 27% 30.15 in 10.0 mi SE 4.6 mph - N/A   Clear
6:53 PM 51.1 °F - 23.0 °F 33% 30.18 in 10.0 mi SSE 5.8 mph - N/A   Clear
7:53 PM 46.9 °F - 25.0 °F 42% 30.19 in 10.0 mi South 6.9 mph - N/A   Clear
8:53 PM 41.0 °F 35.2 °F 25.0 °F 53% 30.21 in 10.0 mi SSW 9.2 mph - N/A   Clear
9:53 PM 41.0 °F 37.1 °F 25.0 °F 53% 30.21 in 10.0 mi SW 5.8 mph - N/A   Clear
10:53 PM 36.0 °F 33.3 °F 25.0 °F 64% 30.20 in 10.0 mi NW 3.5 mph - N/A   Clear
11:53 PM 39.9 °F 37.8 °F 25.0 °F 55% 30.19 in 10.0 mi South 3.5 mph - N/A   Clear